| time (UTC) | temp C | wind direction | speed KPH | gust KPH | rain 1hr cm | rain 24hr cm | rain mn cm | humidity % | barometer mb |
| 20260510083311 | 12 | 176 | 3.2 | 6.4 | 0.00 | 0.00 | 0.00 | 92 | 1011.3 |
| 20260510082806 | 12 | 191 | 4.8 | 6.4 | 0.00 | 0.00 | 0.00 | 92 | 1011.2 |
| 20260510082306 | 12 | 187 | 4.8 | 8.0 | 0.00 | 0.00 | 0.00 | 92 | 1011.1 |
| 20260510081802 | 12 | 184 | 6.4 | 8.0 | 0.00 | 0.00 | 0.00 | 93 | 1011.1 |
| 20260510081258 | 12 | 216 | 4.8 | 6.4 | 0.00 | 0.00 | 0.00 | 92 | 1011.0 |
| 20260510080754 | 12 | 180 | 4.8 | 9.7 | 0.00 | 0.00 | 0.00 | 92 | 1011.0 |
| 20260510080249 | 12 | 206 | 1.6 | 9.7 | 0.00 | 0.00 | 0.00 | 91 | 1011.2 |
| 20260510075746 | 12 | 175 | 3.2 | 9.7 | 0.00 | 0.00 | 0.00 | 91 | 1011.2 |
| 20260510075244 | 12 | 192 | 3.2 | 9.7 | 0.00 | 0.00 | 0.00 | 91 | 1011.0 |
| 20260510074741 | 12 | 194 | 8.0 | 11.3 | 0.00 | 0.00 | 0.00 | 91 | 1011.0 |
| 20260510074237 | 12 | 189 | 8.0 | 11.3 | 0.00 | 0.00 | 0.00 | 91 | 1010.8 |
| 20260510073733 | 12 | 185 | 4.8 | 9.7 | 0.00 | 0.00 | 0.00 | 91 | 1010.9 |
| 20260510073230 | 12 | 192 | 6.4 | 9.7 | 0.00 | 0.00 | 0.00 | 91 | 1010.8 |
| 20260510072725 | 12 | 170 | 3.2 | 9.7 | 0.00 | 0.00 | 0.00 | 91 | 1010.9 |
| 20260510072222 | 12 | 194 | 8.0 | 11.3 | 0.00 | 0.00 | 0.00 | 91 | 1010.8 |
| 20260510071719 | 12 | 199 | 6.4 | 8.0 | 0.00 | 0.00 | 0.00 | 91 | 1010.8 |
| 20260510071216 | 12 | 191 | 8.0 | 9.7 | 0.00 | 0.00 | 0.00 | 90 | 1010.8 |
| 20260510070714 | 12 | 165 | 3.2 | 8.0 | 0.00 | 0.00 | 0.00 | 90 | 1010.7 |
| 20260510070211 | 12 | 191 | 4.8 | 9.7 | 0.00 | 0.00 | 0.00 | 89 | 1010.9 |
| 20260510065706 | 12 | 180 | 0.0 | 9.7 | 0.00 | 0.00 | 0.00 | 90 | 1010.9 |
| 20260510065202 | 12 | 138 | 4.8 | 6.4 | 0.00 | 0.00 | 0.00 | 90 | 1010.9 |
| 20260510064659 | 12 | 194 | 6.4 | 8.0 | 0.00 | 0.00 | 0.00 | 89 | 1011.0 |
| 20260510064156 | 12 | 205 | 4.8 | 8.0 | 0.00 | 0.00 | 0.00 | 90 | 1011.1 |
| 20260510063653 | 12 | 168 | 3.2 | 9.7 | 0.00 | 0.00 | 0.00 | 90 | 1011.0 |
| 20260510063149 | 12 | 192 | 3.2 | 8.0 | 0.00 | 0.00 | 0.00 | 90 | 1011.2 |
| 20260510062646 | 12 | 193 | 4.8 | 8.0 | 0.00 | 0.00 | 0.00 | 90 | 1010.7 |
| 20260510062142 | 12 | 192 | 3.2 | 6.4 | 0.00 | 0.00 | 0.00 | 89 | 1010.8 |
| 20260510061637 | 12 | 208 | 3.2 | 11.3 | 0.00 | 0.00 | 0.00 | 90 | 1010.8 |
| 20260510061135 | 12 | 187 | 3.2 | 4.8 | 0.00 | 0.00 | 0.00 | 90 | 1011.1 |
| 20260510060631 | 12 | 204 | 3.2 | 4.8 | 0.00 | 0.00 | 0.00 | 89 | 1011.1 |
| 20260510060127 | 12 | 209 | 3.2 | 8.0 | 0.00 | 0.00 | 0.00 | 90 | 1011.3 |
| 20260510055624 | 12 | 170 | 3.2 | 6.4 | 0.00 | 0.00 | 0.00 | 89 | 1011.1 |
| 20260510055122 | 12 | 189 | 3.2 | 6.4 | 0.00 | 0.00 | 0.00 | 90 | 1010.9 |
| 20260510054617 | 12 | 229 | 3.2 | 6.4 | 0.00 | 0.00 | 0.00 | 89 | 1010.8 |
| 20260510054113 | 12 | 139 | 3.2 | 4.8 | 0.00 | 0.00 | 0.00 | 88 | 1011.2 |
| 20260510053612 | 13 | 194 | 4.8 | 8.0 | 0.00 | 0.00 | 0.00 | 87 | 1011.1 |
| 20260510053109 | 13 | 219 | 6.4 | 9.7 | 0.00 | 0.00 | 0.00 | 88 | 1011.0 |
| 20260510052605 | 12 | 186 | 4.8 | 8.0 | 0.00 | 0.00 | 0.00 | 88 | 1011.3 |
| 20260510052102 | 12 | 180 | 1.6 | 3.2 | 0.00 | 0.00 | 0.00 | 88 | 1011.2 |
| 20260510051557 | 13 | 182 | 4.8 | 8.0 | 0.00 | 0.00 | 0.00 | 88 | 1011.2 |
| 20260510051054 | 13 | 213 | 4.8 | 8.0 | 0.00 | 0.00 | 0.00 | 87 | 1011.1 |
| 20260510050551 | 13 | 177 | 4.8 | 16.1 | 0.00 | 0.00 | 0.00 | 87 | 1011.0 |
| 20260510050049 | 12 | 190 | 4.8 | 11.3 | 0.00 | 0.00 | 0.00 | 88 | 1011.1 |
| 20260510045540 | 12 | 246 | 0.0 | 4.8 | 0.00 | 0.00 | 0.00 | 88 | 1011.3 |
| 20260510045036 | 12 | 290 | 0.0 | 6.4 | 0.00 | 0.00 | 0.00 | 88 | 1010.9 |
| 20260510044533 | 13 | 201 | 6.4 | 6.4 | 0.00 | 0.00 | 0.00 | 87 | 1011.3 |
| 20260510044031 | 13 | 203 | 3.2 | 6.4 | 0.00 | 0.00 | 0.00 | 86 | 1011.3 |
| 20260510043526 | 13 | 239 | 3.2 | 8.0 | 0.00 | 0.00 | 0.00 | 86 | 1011.1 |
| 20260510043021 | 13 | 240 | 6.4 | 8.0 | 0.00 | 0.00 | 0.00 | 85 | 1011.0 |
| 20260510042516 | 13 | 177 | 3.2 | 8.0 | 0.00 | 0.00 | 0.00 | 85 | 1010.9 |
| 20260510042016 | 13 | 215 | 0.0 | 8.0 | 0.00 | 0.00 | 0.00 | 86 | 1011.1 |
| 20260510041514 | 13 | 275 | 6.4 | 8.0 | 0.00 | 0.00 | 0.00 | 84 | 1011.1 |
| 20260510041011 | 13 | 190 | 4.8 | 8.0 | 0.00 | 0.00 | 0.00 | 84 | 1011.2 |
| 20260510040508 | 13 | 196 | 4.8 | 8.0 | 0.00 | 0.00 | 0.00 | 84 | 1011.0 |
| 20260510040003 | 13 | 192 | 1.6 | 6.4 | 0.00 | 0.61 | 0.61 | 85 | 1010.8 |
| 20260510035500 | 13 | 191 | 3.2 | 8.0 | 0.00 | 0.61 | 0.61 | 84 | 1010.8 |
| 20260510034959 | 13 | 185 | 4.8 | 9.7 | 0.00 | 0.61 | 0.61 | 84 | 1010.9 |
| 20260510034459 | 13 | 199 | 6.4 | 8.0 | 0.00 | 0.61 | 0.61 | 85 | 1010.8 |
| 20260510033954 | 13 | 183 | 4.8 | 8.0 | 0.00 | 0.61 | 0.61 | 83 | 1010.9 |
| 20260510033450 | 13 | 149 | 4.8 | 8.0 | 0.00 | 0.61 | 0.61 | 83 | 1010.8 |
| 20260510032948 | 13 | 162 | 1.6 | 8.0 | 0.00 | 0.61 | 0.61 | 83 | 1010.8 |
| 20260510032445 | 13 | 251 | 0.0 | 6.4 | 0.00 | 0.61 | 0.61 | 82 | 1010.7 |
| 20260510031944 | 13 | 197 | 0.0 | 9.7 | 0.00 | 0.61 | 0.61 | 82 | 1010.6 |
| 20260510031440 | 13 | 177 | 3.2 | 8.0 | 0.00 | 0.61 | 0.61 | 81 | 1010.6 |
| 20260510030936 | 14 | 237 | 3.2 | 8.0 | 0.00 | 0.61 | 0.61 | 81 | 1010.8 |
| 20260510030432 | 14 | 225 | 0.0 | 9.7 | 0.00 | 0.61 | 0.61 | 80 | 1010.7 |
| 20260510025930 | 13 | 120 | 1.6 | 8.0 | 0.00 | 0.61 | 0.61 | 82 | 1010.5 |
| 20260510025427 | 13 | 211 | 4.8 | 8.0 | 0.00 | 0.61 | 0.61 | 81 | 1010.3 |
| 20260510024924 | 13 | 166 | 3.2 | 11.3 | 0.00 | 0.61 | 0.61 | 81 | 1010.3 |
| 20260510024420 | 14 | 180 | 0.0 | 8.0 | 0.00 | 0.61 | 0.61 | 80 | 1010.6 |
| 20260510023916 | 14 | 197 | 8.0 | 11.3 | 0.00 | 0.61 | 0.61 | 79 | 1010.2 |
| 20260510023413 | 14 | 162 | 1.6 | 9.7 | 0.00 | 0.61 | 0.61 | 80 | 1010.2 |
| 20260510022910 | 13 | 163 | 3.2 | 8.0 | 0.00 | 0.61 | 0.61 | 80 | 1010.2 |
| 20260510022409 | 13 | 189 | 4.8 | 9.7 | 0.00 | 0.61 | 0.61 | 81 | 1010.1 |
| 20260510021908 | 13 | 170 | 4.8 | 8.0 | 0.00 | 0.61 | 0.61 | 80 | 1010.1 |
| 20260510021407 | 13 | 219 | 4.8 | 9.7 | 0.00 | 0.61 | 0.61 | 80 | 1010.3 |
| 20260510020903 | 13 | 246 | 1.6 | 4.8 | 0.00 | 0.61 | 0.61 | 82 | 1010.0 |
| 20260510020358 | 14 | 138 | 4.8 | 11.3 | 0.00 | 0.61 | 0.61 | 80 | 1009.8 |
| 20260510015854 | 13 | 192 | 0.0 | 8.0 | 0.00 | 0.61 | 0.61 | 80 | 1009.9 |
| 20260510015349 | 13 | 182 | 4.8 | 6.4 | 0.00 | 0.61 | 0.61 | 80 | 1010.0 |
| 20260510014845 | 14 | 139 | 3.2 | 8.0 | 0.00 | 0.61 | 0.61 | 79 | 1010.0 |
| 20260510014342 | 14 | 200 | 0.0 | 6.4 | 0.00 | 0.61 | 0.61 | 80 | 1010.1 |
| 20260510013838 | 14 | 180 | 3.2 | 9.7 | 0.00 | 0.61 | 0.61 | 78 | 1009.9 |
| 20260510013334 | 14 | 168 | 1.6 | 4.8 | 0.00 | 0.61 | 0.61 | 80 | 1009.7 |
| 20260510012829 | 14 | 203 | 1.6 | 6.4 | 0.00 | 0.61 | 0.61 | 78 | 1009.6 |
| 20260510012329 | 14 | 213 | 3.2 | 4.8 | 0.00 | 0.61 | 0.61 | 78 | 1009.4 |
| 20260510011824 | 15 | 192 | 4.8 | 6.4 | 0.00 | 0.61 | 0.61 | 77 | 1009.5 |
| 20260510011320 | 14 | 176 | 3.2 | 6.4 | 0.00 | 0.61 | 0.61 | 79 | 1009.5 |
| 20260510010816 | 14 | 198 | 1.6 | 8.0 | 0.00 | 0.61 | 0.61 | 79 | 1009.5 |
| 20260510010314 | 15 | 193 | 4.8 | 8.0 | 0.00 | 0.61 | 0.61 | 77 | 1009.4 |
| 20260510005811 | 15 | 189 | 6.4 | 9.7 | 0.00 | 0.61 | 0.61 | 76 | 1009.2 |
| 20260510005307 | 15 | 195 | 4.8 | 8.0 | 0.00 | 0.61 | 0.61 | 76 | 1009.2 |
| 20260510004805 | 15 | 196 | 0.0 | 4.8 | 0.00 | 0.61 | 0.61 | 77 | 1009.2 |
| 20260510004302 | 15 | 191 | 4.8 | 4.8 | 0.00 | 0.61 | 0.61 | 76 | 1009.3 |
| 20260510003759 | 15 | 190 | 3.2 | 6.4 | 0.00 | 0.61 | 0.61 | 75 | 1009.2 |
| 20260510003256 | 15 | 187 | 3.2 | 6.4 | 0.00 | 0.61 | 0.61 | 75 | 1009.3 |
| 20260510002754 | 15 | 254 | 1.6 | 8.0 | 0.00 | 0.61 | 0.61 | 75 | 1009.1 |
| 20260510002253 | 15 | 285 | 0.0 | 4.8 | 0.00 | 0.61 | 0.61 | 74 | 1009.1 |
| 20260510001749 | 15 | 174 | 0.0 | 4.8 | 0.00 | 0.61 | 0.61 | 73 | 1009.0 |
| 20260510001247 | 16 | 180 | 0.0 | 4.8 | 0.00 | 0.61 | 0.61 | 72 | 1009.0 |
| 20260510000743 | 16 | 197 | 3.2 | 6.4 | 0.00 | 0.61 | 0.61 | 71 | 1008.9 |
| 20260510000241 | 16 | 198 | 4.8 | 6.4 | 0.00 | 0.61 | 0.61 | 72 | 1008.6 |
| 20260509235737 | 16 | 270 | 0.0 | 4.8 | 0.00 | 0.61 | 0.61 | 72 | 1008.7 |
| 20260509235233 | 16 | 237 | 4.8 | 6.4 | 0.00 | 0.61 | 0.61 | 72 | 1008.7 |
| 20260509234729 | 16 | 196 | 3.2 | 12.9 | 0.00 | 0.61 | 0.61 | 69 | 1008.7 |
| 20260509234227 | 16 | 191 | 3.2 | 9.7 | 0.00 | 0.61 | 0.61 | 68 | 1008.5 |
| 20260509233725 | 16 | 259 | 3.2 | 8.0 | 0.00 | 0.61 | 0.61 | 71 | 1008.6 |
| 20260509233222 | 16 | 57 | 3.2 | 4.8 | 0.00 | 0.61 | 0.61 | 70 | 1008.8 |
| 20260509232718 | 16 | 206 | 1.6 | 3.2 | 0.00 | 0.61 | 0.61 | 71 | 1008.7 |
| 20260509232215 | 16 | 261 | 3.2 | 6.4 | 0.00 | 0.61 | 0.61 | 70 | 1008.6 |
| 20260509231712 | 17 | 186 | 0.0 | 6.4 | 0.00 | 0.61 | 0.61 | 68 | 1008.6 |
| 20260509231209 | 17 | 254 | 3.2 | 6.4 | 0.00 | 0.61 | 0.61 | 67 | 1008.6 |
| 20260509230706 | 17 | 144 | 4.8 | 8.0 | 0.00 | 0.61 | 0.61 | 67 | 1008.7 |
| 20260509230157 | 17 | 200 | 4.8 | 4.8 | 0.00 | 0.61 | 0.61 | 67 | 1008.5 |
| 20260509225653 | 17 | 166 | 1.6 | 6.4 | 0.00 | 0.61 | 0.61 | 67 | 1008.7 |
| 20260509225149 | 17 | 204 | 6.4 | 8.0 | 0.00 | 0.61 | 0.61 | 68 | 1008.8 |
| 20260509224644 | 18 | 237 | 4.8 | 8.0 | 0.00 | 0.61 | 0.61 | 67 | 1008.9 |
| 20260509224141 | 17 | 183 | 0.0 | 6.4 | 0.00 | 0.61 | 0.61 | 67 | 1008.8 |
| 20260509223638 | 18 | 261 | 0.0 | 6.4 | 0.00 | 0.61 | 0.61 | 67 | 1009.0 |
| 20260509223130 | 18 | 220 | 3.2 | 11.3 | 0.00 | 0.61 | 0.61 | 67 | 1008.8 |
| 20260509222627 | 18 | 252 | 0.0 | 6.4 | 0.00 | 0.61 | 0.61 | 68 | 1008.8 |
| 20260509222122 | 18 | 276 | 3.2 | 12.9 | 0.00 | 0.61 | 0.61 | 65 | 1008.9 |
| 20260509221619 | 18 | 214 | 6.4 | 9.7 | 0.00 | 0.61 | 0.61 | 65 | 1009.0 |
| 20260509221114 | 18 | 261 | 6.4 | 8.0 | 0.00 | 0.61 | 0.61 | 63 | 1009.1 |
| 20260509220610 | 18 | 211 | 4.8 | 11.3 | 0.00 | 0.61 | 0.61 | 64 | 1009.0 |
| 20260509220107 | 18 | 191 | 8.0 | 12.9 | 0.00 | 0.61 | 0.61 | 65 | 1008.9 |
| 20260509215602 | 18 | 202 | 0.0 | 11.3 | 0.00 | 0.61 | 0.61 | 62 | 1008.8 |
| 20260509215100 | 18 | 239 | 8.0 | 14.5 | 0.00 | 0.61 | 0.61 | 65 | 1008.9 |
| 20260509214557 | 18 | 244 | 4.8 | 11.3 | 0.00 | 0.61 | 0.61 | 64 | 1009.0 |
| 20260509214053 | 19 | 205 | 4.8 | 4.8 | 0.00 | 0.61 | 0.61 | 66 | 1008.9 |
| 20260509213549 | 18 | 150 | 3.2 | 11.3 | 0.00 | 0.61 | 0.61 | 66 | 1009.1 |
| 20260509213046 | 18 | 125 | 8.0 | 9.7 | 0.00 | 0.61 | 0.61 | 67 | 1009.1 |
| 20260509212544 | 17 | 180 | 0.0 | 8.0 | 0.00 | 0.61 | 0.61 | 68 | 1009.2 |
| 20260509212041 | 18 | 220 | 4.8 | 6.4 | 0.00 | 0.61 | 0.61 | 70 | 1009.0 |
| 20260509211536 | 18 | 222 | 9.7 | 17.7 | 0.00 | 0.61 | 0.61 | 65 | 1009.0 |
| 20260509211033 | 18 | 239 | 9.7 | 11.3 | 0.00 | 0.61 | 0.61 | 64 | 1009.0 |
| 20260509210530 | 18 | 186 | 6.4 | 6.4 | 0.00 | 0.61 | 0.61 | 68 | 1009.1 |
| 20260509210026 | 18 | 252 | 0.0 | 9.7 | 0.00 | 0.61 | 0.61 | 65 | 1009.2 |
| 20260509205520 | 20 | 220 | 4.8 | 6.4 | 0.00 | 0.61 | 0.61 | 63 | 1008.8 |
| 20260509205016 | 18 | 141 | 4.8 | 20.9 | 0.00 | 0.61 | 0.61 | 67 | 1009.2 |
| 20260509204513 | 17 | 216 | 6.4 | 9.7 | 0.00 | 0.61 | 0.61 | 69 | 1009.0 |
| 20260509204009 | 18 | 185 | 3.2 | 12.9 | 0.00 | 0.61 | 0.61 | 67 | 1008.8 |
| 20260509203505 | 20 | 263 | 1.6 | 8.0 | 0.00 | 0.61 | 0.61 | 61 | 1009.1 |
| 20260509203004 | 19 | 197 | 6.4 | 19.3 | 0.00 | 0.61 | 0.61 | 64 | 1009.1 |
| 20260509202458 | 20 | 232 | 8.0 | 12.9 | 0.00 | 0.61 | 0.61 | 62 | 1009.3 |
| 20260509201953 | 19 | 235 | 8.0 | 20.9 | 0.00 | 0.61 | 0.61 | 65 | 1009.3 |
| 20260509201454 | 20 | 215 | 6.4 | 8.0 | 0.00 | 0.61 | 0.61 | 65 | 1009.2 |
| 20260509200951 | 20 | 221 | 3.2 | 9.7 | 0.00 | 0.61 | 0.61 | 66 | 1009.3 |
| 20260509200446 | 20 | 251 | 3.2 | 4.8 | 0.00 | 0.61 | 0.61 | 63 | 1009.4 |
| 20260509195943 | 20 | 202 | 4.8 | 6.4 | 0.00 | 0.61 | 0.61 | 67 | 1009.2 |
| 20260509195438 | 18 | 231 | 6.4 | 20.9 | 0.00 | 0.61 | 0.61 | 64 | 1009.4 |
| 20260509194938 | 18 | 155 | 4.8 | 14.5 | 0.00 | 0.61 | 0.61 | 65 | 1009.4 |
| 20260509194433 | 18 | 197 | 8.0 | 12.9 | 0.00 | 0.61 | 0.61 | 68 | 1009.4 |
| 20260509193931 | 18 | 195 | 6.4 | 9.7 | 0.00 | 0.61 | 0.61 | 65 | 1009.7 |
| 20260509193430 | 18 | 192 | 3.2 | 8.0 | 0.00 | 0.61 | 0.61 | 67 | 1009.5 |
| 20260509192927 | 18 | 194 | 3.2 | 9.7 | 0.00 | 0.61 | 0.61 | 70 | 1009.6 |
| 20260509192423 | 18 | 120 | 8.0 | 14.5 | 0.00 | 0.61 | 0.61 | 66 | 1009.7 |
| 20260509191918 | 18 | 263 | 1.6 | 6.4 | 0.00 | 0.61 | 0.61 | 64 | 1009.7 |
| 20260509191415 | 18 | 180 | 3.2 | 8.0 | 0.00 | 0.61 | 0.61 | 69 | 1009.8 |
| 20260509190911 | 17 | 241 | 3.2 | 8.0 | 0.00 | 0.61 | 0.61 | 82 | 1009.7 |
| 20260509190408 | 16 | 251 | 0.0 | 4.8 | 0.00 | 0.61 | 0.61 | 75 | 1009.7 |
| 20260509185905 | 16 | 248 | 6.4 | 12.9 | 0.00 | 0.61 | 0.61 | 70 | 1009.6 |
| 20260509185402 | 15 | 241 | 3.2 | 9.7 | 0.00 | 0.61 | 0.61 | 76 | 1009.7 |
| 20260509184858 | 15 | 180 | 1.6 | 14.5 | 0.00 | 0.61 | 0.61 | 78 | 1009.7 |
| 20260509184355 | 16 | 230 | 6.4 | 6.4 | 0.00 | 0.61 | 0.61 | 77 | 1009.7 |
| 20260509183853 | 16 | 180 | 0.0 | 8.0 | 0.00 | 0.61 | 0.61 | 78 | 1009.7 |
| 20260509183347 | 16 | 189 | 3.2 | 17.7 | 0.00 | 0.61 | 0.61 | 75 | 1009.7 |
| 20260509182843 | 15 | 225 | 3.2 | 4.8 | 0.00 | 0.61 | 0.61 | 82 | 1009.9 |
| 20260509182341 | 16 | 245 | 3.2 | 3.2 | 0.00 | 0.61 | 0.61 | 84 | 1009.8 |
| 20260509181838 | 15 | 180 | 1.6 | 4.8 | 0.00 | 0.61 | 0.61 | 81 | 1009.8 |
| 20260509181335 | 15 | 188 | 0.0 | 4.8 | 0.00 | 0.61 | 0.61 | 85 | 1009.8 |
| 20260509180832 | 15 | 180 | 0.0 | 4.8 | 0.00 | 0.61 | 0.61 | 85 | 1009.7 |
| 20260509180328 | 15 | 188 | 0.0 | 6.4 | 0.00 | 0.61 | 0.61 | 83 | 1009.7 |
| 20260509175825 | 15 | 180 | 1.6 | 9.7 | 0.00 | 0.61 | 0.61 | 86 | 1009.6 |
| 20260509175322 | 14 | 188 | 3.2 | 8.0 | 0.00 | 0.61 | 0.61 | 86 | 1009.4 |
| 20260509174818 | 15 | 183 | 3.2 | 8.0 | 0.00 | 0.61 | 0.61 | 88 | 1009.7 |
| 20260509174313 | 14 | 131 | 3.2 | 6.4 | 0.00 | 0.61 | 0.61 | 88 | 1009.5 |
| 20260509173810 | 14 | 180 | 3.2 | 8.0 | 0.00 | 0.61 | 0.61 | 87 | 1009.5 |
| 20260509173305 | 15 | 120 | 3.2 | 8.0 | 0.00 | 0.61 | 0.61 | 90 | 1009.5 |
| 20260509172801 | 14 | 278 | 1.6 | 11.3 | 0.00 | 0.61 | 0.61 | 90 | 1009.6 |
| 20260509172259 | 14 | 142 | 6.4 | 9.7 | 0.00 | 0.61 | 0.61 | 95 | 1009.8 |
| 20260509171754 | 13 | 234 | 4.8 | 6.4 | 0.00 | 0.61 | 0.61 | 97 | 1009.4 |
| 20260509171250 | 13 | 156 | 0.0 | 8.0 | 0.00 | 0.61 | 0.61 | 99 | 1009.7 |
| 20260509170747 | 13 | 200 | 0.0 | 6.4 | 0.00 | 0.61 | 0.61 | 99 | 1009.7 |
| 20260509170243 | 13 | 196 | 4.8 | 8.0 | 0.00 | 0.61 | 0.61 | 99 | 1009.4 |
| 20260509165742 | 12 | 140 | 4.8 | 8.0 | 0.00 | 0.61 | 0.61 | 99 | 1009.7 |
| 20260509165237 | 12 | 185 | 1.6 | 6.4 | 0.00 | 0.61 | 0.61 | 99 | 1009.5 |
| 20260509164733 | 11 | 155 | 4.8 | 4.8 | 0.00 | 0.61 | 0.61 | 99 | 1009.8 |
| 20260509164229 | 11 | 198 | 0.0 | 4.8 | 0.00 | 0.61 | 0.61 | 99 | 1009.7 |
| 20260509163726 | 11 | 180 | 0.0 | 4.8 | 0.00 | 0.61 | 0.61 | 99 | 1009.9 |
| 20260509163223 | 11 | 160 | 1.6 | 4.8 | 0.00 | 0.61 | 0.61 | 99 | 1010.0 |
| 20260509162720 | 11 | 169 | 1.6 | 3.2 | 0.00 | 0.61 | 0.61 | 99 | 1010.0 |
| 20260509162215 | 11 | 191 | 4.8 | 6.4 | 0.00 | 0.61 | 0.61 | 99 | 1009.6 |
| 20260509161711 | 11 | 197 | 4.8 | 4.8 | 0.00 | 0.61 | 0.61 | 99 | 1009.6 |
| 20260509161208 | 11 | 196 | 0.0 | 4.8 | 0.00 | 0.61 | 0.61 | 99 | 1009.9 |
| 20260509160703 | 11 | 186 | 1.6 | 6.4 | 0.00 | 0.61 | 0.61 | 99 | 1009.9 |
| 20260509160159 | 11 | 185 | 3.2 | 4.8 | 0.00 | 0.61 | 0.61 | 99 | 1009.9 |
| 20260509155655 | 11 | 203 | 0.0 | 4.8 | 0.00 | 0.61 | 0.61 | 99 | 1009.7 |
| 20260509155151 | 11 | 196 | 4.8 | 6.4 | 0.00 | 0.61 | 0.61 | 99 | 1009.8 |
| 20260509154647 | 11 | 195 | 3.2 | 4.8 | 0.00 | 0.61 | 0.61 | 99 | 1009.5 |
| 20260509154145 | 11 | 174 | 1.6 | 6.4 | 0.00 | 0.61 | 0.61 | 99 | 1009.7 |
| 20260509153641 | 10 | 198 | 1.6 | 6.4 | 0.00 | 0.61 | 0.61 | 99 | 1009.9 |
| 20260509153138 | 10 | 163 | 3.2 | 4.8 | 0.00 | 0.61 | 0.61 | 99 | 1009.9 |
| 20260509152634 | 10 | 193 | 4.8 | 6.4 | 0.00 | 0.61 | 0.61 | 99 | 1009.9 |
| 20260509152131 | 10 | 160 | 1.6 | 6.4 | 0.00 | 0.61 | 0.61 | 99 | 1010.2 |
| 20260509151627 | 11 | 154 | 4.8 | 6.4 | 0.00 | 0.61 | 0.61 | 99 | 1010.3 |
| 20260509151125 | 11 | 175 | 1.6 | 4.8 | 0.05 | 0.61 | 0.61 | 99 | 1010.0 |
| 20260509150623 | 11 | 185 | 1.6 | 4.8 | 0.05 | 0.61 | 0.61 | 99 | 1009.9 |
| 20260509150121 | 10 | 187 | 3.2 | 4.8 | 0.00 | 0.58 | 0.58 | 99 | 1010.0 |
| 20260509145616 | 10 | 200 | 4.8 | 6.4 | 0.00 | 0.58 | 0.58 | 99 | 1010.5 |
| 20260509145113 | 10 | 189 | 3.2 | 4.8 | 0.00 | 0.58 | 0.58 | 99 | 1010.5 |
| 20260509144610 | 10 | 192 | 3.2 | 6.4 | 0.00 | 0.58 | 0.58 | 99 | 1010.2 |
| 20260509144107 | 10 | 187 | 3.2 | 6.4 | 0.00 | 0.58 | 0.58 | 99 | 1010.5 |
| 20260509143604 | 10 | 198 | 3.2 | 6.4 | 0.00 | 0.58 | 0.58 | 99 | 1010.3 |
| 20260509143102 | 10 | 144 | 0.0 | 4.8 | 0.00 | 0.58 | 0.58 | 99 | 1010.1 |
| 20260509142601 | 10 | 154 | 0.0 | 4.8 | 0.00 | 0.58 | 0.58 | 99 | 1010.1 |
| 20260509142058 | 10 | 180 | 3.2 | 4.8 | 0.00 | 0.58 | 0.58 | 99 | 1010.2 |
| 20260509141554 | 10 | 184 | 3.2 | 4.8 | 0.00 | 0.58 | 0.58 | 99 | 1010.2 |
| 20260509141051 | 10 | 201 | 4.8 | 4.8 | 0.05 | 0.58 | 0.58 | 99 | 1010.0 |
| 20260509140548 | 10 | 180 | 1.6 | 3.2 | 0.05 | 0.58 | 0.58 | 99 | 1010.5 |
| 20260509140046 | 10 | 161 | 3.2 | 4.8 | 0.05 | 0.58 | 0.58 | 99 | 1010.7 |
| 20260509135543 | 10 | 205 | 4.8 | 4.8 | 0.05 | 0.56 | 0.56 | 99 | 1010.3 |
| 20260509135041 | 10 | 188 | 0.0 | 4.8 | 0.05 | 0.56 | 0.56 | 99 | 1010.3 |
| 20260509134537 | 10 | 184 | 3.2 | 4.8 | 0.05 | 0.56 | 0.56 | 99 | 1010.1 |
| 20260509134035 | 10 | 188 | 4.8 | 4.8 | 0.05 | 0.56 | 0.56 | 99 | 1010.2 |
| 20260509133532 | 10 | 188 | 4.8 | 4.8 | 0.05 | 0.53 | 0.53 | 99 | 1010.5 |
| 20260509133029 | 10 | 196 | 4.8 | 4.8 | 0.18 | 0.53 | 0.53 | 99 | 1010.6 |
| 20260509132528 | 10 | 198 | 1.6 | 4.8 | 0.13 | 0.51 | 0.51 | 99 | 1010.6 |
| 20260509132026 | 10 | 187 | 1.6 | 4.8 | 0.13 | 0.51 | 0.51 | 99 | 1010.6 |
| 20260509131521 | 10 | 198 | 3.2 | 4.8 | 0.05 | 0.51 | 0.51 | 99 | 1010.3 |
| 20260509131018 | 10 | 184 | 3.2 | 4.8 | 0.00 | 0.48 | 0.48 | 99 | 1010.3 |
| 20260509130514 | 10 | 199 | 3.2 | 4.8 | 0.00 | 0.48 | 0.48 | 99 | 1010.3 |
| 20260509130011 | 10 | 200 | 4.8 | 4.8 | 0.05 | 0.48 | 0.48 | 99 | 1010.3 |
| 20260509125508 | 10 | 187 | 1.6 | 4.8 | 0.13 | 0.48 | 0.48 | 99 | 1010.2 |
| 20260509125004 | 10 | 176 | 3.2 | 4.8 | 0.13 | 0.48 | 0.48 | 99 | 1010.2 |
| 20260509124501 | 9 | 195 | 0.0 | 4.8 | 0.05 | 0.46 | 0.46 | 99 | 1010.6 |
| 20260509123958 | 9 | 139 | 0.0 | 6.4 | 0.05 | 0.46 | 0.46 | 99 | 1010.6 |
| 20260509123455 | 9 | 184 | 3.2 | 3.2 | 0.05 | 0.46 | 0.46 | 99 | 1010.5 |
| 20260509122950 | 9 | 193 | 4.8 | 6.4 | 0.05 | 0.46 | 0.46 | 99 | 1010.6 |
| 20260509122448 | 9 | 141 | 3.2 | 4.8 | 0.13 | 0.46 | 0.46 | 99 | 1010.6 |
| 20260509121945 | 9 | 191 | 3.2 | 8.0 | 0.13 | 0.43 | 0.43 | 99 | 1010.8 |
| 20260509121442 | 9 | 154 | 4.8 | 4.8 | 0.13 | 0.43 | 0.43 | 99 | 1010.8 |
| 20260509120940 | 9 | 197 | 4.8 | 8.0 | 0.13 | 0.43 | 0.43 | 99 | 1010.9 |
| 20260509120438 | 9 | 154 | 4.8 | 8.0 | 0.13 | 0.41 | 0.41 | 99 | 1010.9 |
| 20260509115935 | 9 | 154 | 1.6 | 4.8 | 0.13 | 0.41 | 0.41 | 99 | 1010.8 |
| 20260509115432 | 9 | 195 | 0.0 | 6.4 | 0.13 | 0.38 | 0.38 | 99 | 1010.8 |
| 20260509114929 | 9 | 201 | 3.2 | 4.8 | 0.05 | 0.38 | 0.38 | 99 | 1010.6 |
| 20260509114428 | 9 | 166 | 1.6 | 6.4 | 0.00 | 0.38 | 0.38 | 99 | 1010.5 |
| 20260509113927 | 9 | 195 | 4.8 | 6.4 | 0.05 | 0.38 | 0.38 | 99 | 1010.8 |
| 20260509113424 | 9 | 187 | 0.0 | 6.4 | 0.00 | 0.36 | 0.36 | 99 | 1010.8 |
| 20260509112921 | 9 | 186 | 4.8 | 4.8 | 0.05 | 0.36 | 0.36 | 99 | 1010.8 |
| 20260509112418 | 9 | 198 | 1.6 | 3.2 | 0.00 | 0.36 | 0.36 | 98 | 1010.9 |
| 20260509111915 | 9 | 203 | 1.6 | 3.2 | 0.05 | 0.36 | 0.36 | 98 | 1010.7 |
| 20260509111412 | 9 | 259 | 0.0 | 6.4 | 0.05 | 0.36 | 0.36 | 98 | 1010.5 |
| 20260509110909 | 9 | 194 | 0.0 | 8.0 | 0.00 | 0.33 | 0.33 | 98 | 1010.5 |
| 20260509110405 | 9 | 194 | 0.0 | 4.8 | 0.05 | 0.33 | 0.33 | 98 | 1010.5 |
| 20260509105904 | 9 | 238 | 4.8 | 8.0 | 0.05 | 0.33 | 0.33 | 98 | 1010.3 |
| 20260509105402 | 8 | 203 | 0.0 | 4.8 | 0.00 | 0.33 | 0.33 | 98 | 1010.3 |
| 20260509104858 | 8 | 212 | 0.0 | 8.0 | 0.05 | 0.33 | 0.33 | 98 | 1010.3 |
| 20260509104355 | 8 | 192 | 1.6 | 6.4 | 0.13 | 0.33 | 0.33 | 98 | 1010.1 |
| 20260509103853 | 9 | 194 | 3.2 | 6.4 | 0.13 | 0.33 | 0.33 | 98 | 1010.3 |
| 20260509103350 | 9 | 180 | 0.0 | 4.8 | 0.13 | 0.30 | 0.30 | 97 | 1010.2 |
| 20260509102849 | 9 | 152 | 3.2 | 3.2 | 0.05 | 0.28 | 0.28 | 97 | 1010.3 |
| 20260509102345 | 9 | 180 | 1.6 | 6.4 | 0.13 | 0.28 | 0.28 | 96 | 1010.3 |
| 20260509101841 | 9 | 237 | 8.0 | 11.3 | 0.13 | 0.28 | 0.28 | 96 | 1010.3 |
| 20260509101337 | 9 | 233 | 3.2 | 4.8 | 0.05 | 0.25 | 0.25 | 96 | 1010.5 |
| 20260509100835 | 9 | 188 | 0.0 | 3.2 | 0.05 | 0.25 | 0.25 | 95 | 1010.3 |
| 20260509100332 | 9 | 209 | 0.0 | 4.8 | 0.00 | 0.25 | 0.25 | 95 | 1010.6 |
| 20260509095829 | 9 | 199 | 3.2 | 12.9 | 0.05 | 0.25 | 0.25 | 95 | 1010.3 |
| 20260509095326 | 9 | 240 | 4.8 | 6.4 | 0.00 | 0.23 | 0.23 | 96 | 1010.5 |
| 20260509094823 | 9 | 262 | 0.0 | 4.8 | 0.05 | 0.23 | 0.23 | 96 | 1010.2 |
| 20260509094320 | 9 | 201 | 6.4 | 8.0 | 0.05 | 0.23 | 0.23 | 96 | 1010.3 |
| 20260509093818 | 9 | 209 | 1.6 | 8.0 | 0.13 | 0.23 | 0.23 | 97 | 1010.6 |
| 20260509093315 | 9 | 212 | 0.0 | 4.8 | 0.13 | 0.23 | 0.23 | 96 | 1010.5 |
| 20260509092813 | 9 | 240 | 0.0 | 4.8 | 0.05 | 0.20 | 0.20 | 96 | 1010.9 |
| 20260509092311 | 9 | 205 | 6.4 | 8.0 | 0.05 | 0.20 | 0.20 | 96 | 1010.6 |
| 20260509091809 | 9 | 308 | 6.4 | 11.3 | 0.13 | 0.20 | 0.20 | 96 | 1010.7 |
| 20260509091305 | 9 | 130 | 0.0 | 8.0 | 0.05 | 0.18 | 0.18 | 96 | 1011.0 |
| 20260509090803 | 9 | 267 | 4.8 | 8.0 | 0.05 | 0.18 | 0.18 | 96 | 1011.1 |
| 20260509090259 | 9 | 157 | 0.0 | 3.2 | 0.13 | 0.18 | 0.18 | 96 | 1010.9 |
| 20260509085757 | 9 | 194 | 3.2 | 12.9 | 0.13 | 0.18 | 0.18 | 96 | 1011.1 |
| 20260509085254 | 9 | 190 | 8.0 | 8.0 | 0.13 | 0.15 | 0.15 | 95 | 1011.2 |
| 20260509084750 | 9 | 166 | 3.2 | 6.4 | 0.05 | 0.15 | 0.15 | 95 | 1011.0 |
| 20260509084247 | 9 | 129 | 0.0 | 3.2 | 0.05 | 0.15 | 0.15 | 95 | 1010.9 |
| 20260509083745 | 10 | 302 | 4.8 | 9.7 | 0.23 | 0.13 | 0.13 | 94 | 1010.8 |